Overview Statistics Trail Chart Weather Telemetry Raw packets
 

This is the latest recevied weather packets stored in our database for station/object KH6DH-13. If no packets are shown the sender has not sent any weather packets the latest 10 day(s).

<< 36 37 38 39 40 41 42 >>
Time Temp. Humidity Pressure Rain* Wind** Luminosity Snow
1788123774 28.33° C - - 0 mm 3.13 m/s, 63° - -
1788123173 28.33° C - - 0 mm 0.89 m/s, 304° - -
1788122572 28.33° C - - 0 mm 1.79 m/s, 83° - -
1788121971 27.78° C - - 0 mm 1.34 m/s, 115° - -
1788121370 27.22° C - - 0 mm 0.45 m/s, 79° - -
1788120769 27.22° C - - 0 mm 0.89 m/s, 30° - -
1788120168 27.22° C - - 0 mm 2.24 m/s, 124° - -
1788119567 27.22° C - - 0 mm 1.34 m/s, 37° - -
1788118966 27.22° C - - 0 mm 1.79 m/s, 73° - -
1788118365 27.22° C - - 0 mm 1.34 m/s, 352° - -
1788117764 27.22° C - - 0 mm 0.89 m/s, 167° - -
1788117163 26.67° C - - 0 mm 0.89 m/s, 359° - -
1788116562 26.67° C - - 0 mm 1.34 m/s, 73° - -
1788115961 26.67° C - - 0 mm 1.34 m/s, 62° - -
1788115360 26.67° C - - 0 mm 0.45 m/s, 91° - -
1788114759 26.67° C - - 0 mm 1.34 m/s, 14° - -
1788114158 26.11° C - - 0 mm 1.34 m/s, 101° - -
1788113557 26.11° C - - 0 mm 0.89 m/s, 293° - -
1788112956 25.56° C - - 0 mm 0.89 m/s, 28° - -
1788112355 25.56° C - - 0 mm 1.34 m/s, 82° - -
1788111754 25.56° C - - 0 mm 0.45 m/s, 113° - -
1788111153 25.56° C - - 0 mm 1.34 m/s, 65° - -
1788110552 25° C - - 0 mm 0.89 m/s, 69° - -
1788109951 25° C - - 0 mm 0.45 m/s, 342° - -
1788109350 25° C - - 0 mm 0.45 m/s, 30° - -

* Rain latest hour (hover to see other rain measurements)
** Current wind speed in m/s (hover to see current wind gust speed)